Wind_Speed
17 17 17 16 16 16 15 15 15 15 15 15 14 15 14 14 14 13 12 12 12 12 12 13 13 13 13 12 12 12 12 12 12 12 11 11 11 10 10 11 11 12 12 12 12 12 12 11 11 12 12 12 12 11 11 11 12 12 11 10 10 9 8 8 7 7 9 10 12 13 14 13 13 13 12 12 12 11 11 11 11 10 9 9 9
16 17 17 17 16 16 16 16 16 16 16 15 15 15 15 14 14 13 13 12 12 13 13 12 12 12 13 13 13 13 13 13 14 13 13 13 13 13 13 13 13 13 13 13 14 13 13 12 13 13 13 13 13 12 12 12 12 12 11 10 10 10 10 10 10 9 9 10 12 12 13 12 12 13 13 13 11 10 11 12 12 11 9 9 10
16 16 17 17 16 16 16 16 16 16 16 16 16 16 15 15 14 13 13 13 13 12 12 12 12 11 11 12 12 13 14 14 14 14 15 15 15 14 14 14 14 14 14 14 14 14 13 13 14 14 14 13 13 13 12 12 13 12 12 11 11 12 12 12 11 11 10 9 10 10 11 11 11 12 12 12 11 11 12 12 12 11 9 9 11
17 17 16 16 17 17 17 16 16 16 16 16 16 16 16 15 15 14 14 14 14 13 13 13 12 12 11 11 12 12 13 14 14 14 14 15 15 14 14 14 13 13 14 14 14 13 13 13 14 14 14 13 13 13 13 12 12 12 12 12 12 12 12 11 11 10 9 9 9 10 10 10 10 11 11 11 11 12 12 11 11 11 11 12 12
19 19 17 17 18 17 17 17 16 16 16 17 17 16 17 16 16 16 16 15 15 14 14 14 13 12 11 12 12 13 13 14 13 13 13 14 14 13 13 13 13 12 12 12 12 12 12 12 13 13 13 13 13 13 13 12 12 12 12 12 11 11 10 11 11 10 9 9 9 10 10 10 11 12 12 11 11 12 11 11 12 13 13 13 13
20 20 19 18 18 18 18 18 17 16 16 17 17 17 17 17 16 17 17 16 16 15 14 14 14 14 13 13 13 14 14 14 14 14 13 13 13 13 12 13 12 12 12 12 12 12 12 12 12 12 12 12 12 12 12 12 12 12 11 11 10 10 10 11 11 10 10 9 10 10 11 12 12 13 14 14 14 14 13 12 13 14 14 13 11
21 21 20 19 18 18 19 18 18 17 16 16 17 17 17 17 17 17 16 16 16 15 14 13 13 14 15 15 14 15 15 15 15 15 14 14 13 13 13 13 13 13 13 13 13 13 12 12 13 12 12 11 11 11 11 11 12 12 11 10 10 10 11 11 11 12 12 12 12 12 12 13 14 14 14 15 16 16 15 14 12 11 11 11 10
22 22 21 19 18 19 19 19 19 18 17 17 17 17 17 17 17 17 16 16 16 15 15 14 14 15 15 15 16 16 16 15 15 15 14 14 14 14 14 14 14 13 13 14 13 13 13 13 14 13 12 11 11 11 11 12 12 12 12 11 11 11 12 12 13 14 14 14 14 14 13 14 14 14 14 14 14 14 15 14 12 9 8 9 11
24 23 22 21 19 19 19 20 20 19 19 19 18 18 18 18 18 18 17 17 16 16 16 16 15 16 16 16 16 16 16 16 15 15 15 15 15 14 15 15 15 14 15 15 14 14 14 15 15 14 14 13 12 12 12 12 13 13 13 12 11 11 13 14 15 15 15 14 14 14 13 13 14 14 13 13 13 13 13 13 12 11 10 11 14
23 24 23 22 21 21 20 21 21 21 21 20 20 19 19 19 19 18 17 17 18 18 17 17 17 16 17 17 17 17 17 17 16 16 16 16 16 16 16 16 16 16 16 16 15 16 17 17 16 15 14 14 13 12 12 13 14 13 13 12 12 13 13 14 15 15 14 14 14 13 13 13 14 14 13 13 14 14 14 15 14 14 14 13 13
22 24 24 24 23 23 23 22 22 22 21 20 20 20 20 20 20 19 18 19 19 19 19 18 18 17 18 19 19 18 18 17 16 16 16 16 17 17 17 17 17 18 18 18 17 18 19 19 17 15 15 14 14 13 13 14 14 14 13 12 12 12 13 13 14 14 14 14 15 15 15 14 15 15 14 14 15 15 16 17 17 17 16 15 14
22 23 23 24 25 25 24 24 23 22 22 21 21 21 21 20 20 20 19 19 20 20 20 20 19 19 19 19 18 17 17 16 17 17 18 18 18 18 18 18 19 20 19 18 18 18 18 18 16 15 15 15 14 13 13 13 13 14 14 13 13 13 14 14 15 16 16 16 16 17 17 16 16 16 16 16 16 17 17 18 19 18 18 17 17
24 22 22 22 22 23 24 24 24 22 22 22 22 22 22 22 21 21 20 20 20 20 20 20 20 20 20 19 18 16 16 17 17 18 19 19 19 19 20 20 20 20 18 18 18 18 17 16 15 15 15 15 14 13 13 13 14 14 14 14 15 16 16 17 17 18 18 18 18 19 19 18 18 17 18 18 18 18 18 18 19 19 19 19 19
27 25 23 22 21 22 24 24 23 22 22 22 22 22 23 23 23 22 22 22 21 20 20 19 20 20 19 18 18 18 18 18 18 18 19 19 19 20 21 21 20 18 17 18 18 17 17 16 15 15 15 15 14 14 14 14 15 16 17 17 18 18 18 18 19 20 20 21 21 20 20 20 19 18 18 19 19 19 19 19 19 19 19 19 20
29 26 24 23 22 23 24 24 24 23 22 22 22 22 23 23 22 22 22 22 22 22 21 21 20 20 20 19 19 20 19 19 19 19 19 20 20 21 23 22 20 19 18 19 19 18 18 17 17 17 17 16 16 15 16 16 17 17 18 18 19 19 19 20 20 20 21 22 22 22 22 21 20 19 19 20 21 21 21 21 21 20 20 21 22
28 25 25 25 24 23 25 26 25 25 25 25 25 25 24 24 23 23 23 23 22 22 22 22 22 22 22 22 22 23 22 21 21 21 21 21 21 22 23 22 21 20 20 19 19 19 19 19 18 18 18 18 18 18 18 19 19 19 19 20 21 21 21 21 21 21 22 22 23 24 23 22 21 21 21 21 22 23 24 24 23 23 23 23 25
31 28 28 28 27 26 27 27 27 27 28 29 30 29 27 27 27 26 25 24 24 25 24 24 24 24 24 25 25 25 25 24 23 23 24 24 23 23 24 23 23 22 22 21 21 21 20 20 20 20 20 20 20 20 20 21 21 21 21 22 23 23 23 23 23 23 23 23 24 24 23 22 22 22 23 23 24 25 25 25 25 25 25 25 25
31 30 30 30 30 30 30 29 29 31 33 33 32 32 31 31 31 30 28 28 27 28 28 27 27 27 27 27 27 27 27 27 26 25 26 26 26 26 26 26 26 26 26 25 24 23 22 21 21 22 22 22 22 22 22 22 23 23 23 24 25 25 25 25 25 25 25 25 25 25 24 23 23 24 25 26 26 27 26 27 27 26 25 24 23
29 31 31 30 31 32 31 29 31 35 37 34 30 30 31 31 31 31 31 31 31 31 32 31 30 29 30 31 30 29 29 29 28 28 28 28 29 29 29 28 28 28 27 27 25 24 23 22 21 22 23 23 23 23 22 22 22 23 23 24 25 25 25 26 27 27 27 27 26 25 24 23 24 25 26 27 27 27 27 27 26 25 24 23 22
31 34 33 30 29 30 30 29 31 34 33 29 25 26 28 30 32 32 32 32 32 33 34 34 33 32 32 33 33 33 33 32 31 31 31 32 33 33 33 32 31 29 28 28 27 26 24 22 21 22 24 24 23 23 23 22 23 23 24 24 25 26 27 28 29 29 28 27 25 24 23 24 25 26 26 25 25 24 24 25 24 23 22 22 23
26 25 27 25 23 23 26 27 28 27 25 22 21 22 25 29 32 32 31 33 35 35 35 34 34 33 33 33 34 35 36 35 34 33 33 34 35 37 38 37 35 34 31 29 28 27 25 23 23 23 24 24 24 23 23 23 23 23 24 24 25 26 27 27 28 27 26 24 22 22 23 25 26 25 24 23 23 23 23 24 24 25 24 24 25
23 17 16 19 18 19 21 23 23 21 19 19 19 20 22 26 28 28 28 30 33 34 34 33 33 33 32 32 33 34 35 36 35 35 35 36 37 38 39 39 38 37 36 33 31 29 27 25 24 24 24 24 23 22 22 22 21 21 22 23 23 24 24 24 24 23 23 22 22 23 24 25 25 24 23 23 24 25 25 26 26 27 28 27 27
21 15 13 15 17 19 20 22 22 22 21 21 21 21 22 25 27 27 27 28 31 33 33 33 34 33 32 31 31 32 33 34 35 35 35 36 37 38 39 39 38 37 37 35 34 32 31 30 28 26 25 23 22 22 21 20 19 20 21 21 21 21 21 20 20 21 22 23 24 24 25 25 24 24 24 25 26 26 26 26 26 26 27 27 26
18 16 14 14 16 18 19 21 23 24 24 24 24 23 23 26 29 30 29 29 32 34 32 32 32 31 29 29 30 31 32 33 34 33 31 32 33 35 36 37 36 34 34 34 34 34 34 33 30 27 26 25 23 22 20 18 19 20 21 21 20 20 20 19 19 20 20 21 23 24 24 25 25 25 25 25 25 25 25 24 23 23 23 23 23
13 13 12 13 15 17 20 22 24 25 26 27 27 25 25 27 30 31 31 32 34 32 29 28 29 28 27 27 27 28 29 30 30 28 28 28 29 30 32 32 29 30 32 33 32 32 32 31 27 25 26 25 23 21 19 18 19 20 20 20 20 20 20 20 21 21 22 22 24 24 24 25 25 25 25 24 23 22 21 21 20 19 19 19 19
7 7 7 9 11 14 17 19 21 23 26 27 28 28 27 28 29 29 29 31 31 28 25 26 28 28 27 26 25 25 25 26 27 27 27 27 26 26 28 26 25 28 30 30 30 31 31 30 27 27 28 26 24 22 21 22 24 22 20 20 21 21 21 22 23 24 24 24 24 24 23 24 24 24 23 22 20 19 19 18 18 18 18 18 19
3 2 2 6 9 12 13 15 16 18 20 22 25 28 29 30 29 27 26 26 27 26 25 26 28 29 28 26 24 23 23 24 26 26 27 25 23 23 23 22 23 26 24 22 25 30 32 31 30 29 32 31 28 25 25 26 26 24 22 22 23 23 23 24 24 24 24 23 23 22 22 22 22 21 21 20 19 19 18 17 17 18 18 18 19
4 3 3 4 6 9 12 15 16 17 18 19 20 22 24 26 26 25 25 25 26 26 26 25 25 26 26 25 23 23 23 23 23 23 24 24 22 22 21 19 21 23 21 18 20 24 27 31 31 29 31 32 31 29 28 28 26 24 24 25 25 24 23 24 25 24 23 22 21 21 20 20 20 20 21 20 20 19 19 18 18 19 19 19 20
5 5 6 6 7 7 10 13 16 19 21 22 21 20 20 22 22 23 24 25 26 26 24 24 24 24 24 24 24 24 23 23 21 20 20 21 22 23 22 20 20 20 19 18 17 16 18 25 28 26 26 28 29 29 28 26 25 25 25 26 25 24 24 24 24 24 23 22 21 20 20 20 20 21 21 21 21 20 20 20 20 20 21 21 22
6 6 8 9 9 9 10 12 14 17 20 22 22 21 21 22 23 24 25 27 28 27 26 26 26 25 25 28 28 26 24 23 22 20 20 21 21 22 22 21 20 19 18 17 16 14 15 19 22 22 22 24 25 26 25 24 24 24 25 25 24 23 23 24 24 24 23 22 22 21 21 21 20 21 21 20 21 21 21 22 22 23 23 24 25
7 7 8 9 10 11 12 13 15 17 19 21 22 23 24 25 26 26 27 28 29 28 27 27 27 26 26 27 28 27 25 24 22 21 22 22 22 21 20 20 19 19 19 18 17 17 16 17 18 19 20 21 22 22 23 23 23 24 24 23 23 23 23 24 24 24 23 22 22 22 22 21 21 21 21 21 21 22 23 24 24 25 26 26 27
10 9 9 9 9 10 11 13 15 17 18 20 22 24 26 27 27 26 26 26 27 27 27 27 27 26 25 24 24 23 23 23 22 23 23 23 23 22 21 20 20 20 20 19 19 18 18 17 18 18 19 19 20 21 22 23 23 24 24 24 23 23 23 23 24 23 23 23 22 22 22 22 22 22 22 23 24 24 25 26 27 27 27 28 28
12 11 10 9 9 10 11 12 14 15 17 19 21 22 23 24 24 24 24 24 25 26 26 25 26 25 23 23 21 21 22 23 24 24 25 24 24 23 22 21 21 20 19 19 19 18 18 17 17 18 19 20 21 22 23 24 24 24 24 24 24 23 23 23 23 23 23 23 23 23 23 23 23 23 24 25 26 26 27 28 28 29 29 29 29
13 12 11 10 10 10 11 12 13 15 16 17 18 20 21 21 21 21 21 21 22 23 24 25 25 24 22 21 20 20 22 23 23 24 24 23 23 23 22 21 20 20 19 19 19 18 18 18 18 19 21 22 22 23 23 24 24 25 24 24 23 22 22 22 22 23 23 23 23 24 24 24 25 26 26 27 28 28 28 29 29 29 30 30 30
14 14 13 12 11 11 12 12 13 13 13 14 16 18 19 19 19 19 19 19 19 20 21 22 23 22 20 19 19 20 20 21 21 22 22 22 22 22 21 20 20 20 20 20 19 19 19 19 20 21 21 22 22 23 23 23 24 24 24 23 23 22 22 22 23 24 24 25 26 26 26 27 27 28 29 29 29 29 29 30 30 31 31 31 31
15 16 15 14 14 14 14 14 15 14 13 13 14 16 16 17 18 18 18 19 19 19 19 19 20 19 18 18 19 20 21 22 22 22 22 22 22 21 21 20 20 20 20 20 20 20 21 21 22 22 22 22 22 23 23 23 23 23 23 23 23 23 23 24 24 25 26 27 28 28 28 29 29 29 30 30 30 30 30 30 31 31 31 32 32
17 17 16 16 15 15 15 16 18 17 16 15 14 15 15 16 17 17 17 17 17 17 17 18 18 18 18 17 18 20 21 22 23 23 22 22 21 21 20 20 19 20 20 20 20 21 21 22 22 22 22 22 22 22 22 22 22 23 23 24 24 25 25 26 26 27 27 28 29 29 30 30 30 30 30 31 31 31 31 31 32 32 32 33 33
19 18 17 17 16 15 15 17 18 18 18 16 16 16 16 17 18 20 19 17 15 13 13 14 16 17 18 18 19 20 21 22 23 24 22 21 21 21 21 20 20 20 20 21 21 22 22 21 21 21 21 21 21 21 22 22 23 24 25 26 26 27 27 28 28 29 29 30 30 31 31 31 31 31 31 32 32 32 32 33 33 34 34 35 35
21 20 19 18 16 15 15 17 18 19 19 18 18 18 19 20 22 23 23 21 19 16 13 11 11 13 15 17 19 21 22 23 24 23 22 22 22 22 22 21 20 20 21 21 21 20 20 20 20 20 21 21 22 22 23 24 25 25 26 27 27 28 29 30 30 30 30 31 31 31 32 32 32 32 32 33 33 33 33 34 34 35 35 36 36
23 23 22 21 19 18 17 17 18 19 19 20 19 19 19 21 24 26 27 27 26 24 20 15 11 10 12 15 17 19 20 22 22 23 22 22 22 22 22 22 21 21 21 20 19 19 19 20 20 21 22 22 23 24 24 25 26 27 27 28 28 29 30 30 31 31 31 31 31 31 32 32 32 33 33 33 33 34 34 34 35 36 37 37 39
23 24 24 23 23 23 22 22 21 20 20 19 19 19 18 18 20 24 26 28 29 30 27 22 17 13 12 13 15 17 19 19 20 20 20 21 21 21 21 21 20 20 20 20 19 20 21 21 22 22 23 23 24 25 25 26 27 27 28 29 29 30 30 30 31 31 31 31 31 32 32 33 33 33 34 34 34 34 35 35 36 37 38 40 41
22 22 22 23 23 24 24 25 25 25 24 22 20 19 19 17 16 17 20 23 27 29 29 27 23 18 15 14 15 17 19 20 20 20 20 20 20 20 20 19 20 20 20 20 21 21 22 23 23 23 24 24 25 26 26 27 27 28 28 29 30 30 30 30 30 31 31 31 32 32 32 33 33 34 34 35 35 36 36 37 38 40 41 42 44
23 23 22 21 21 21 21 23 25 27 27 26 23 21 19 18 17 15 16 18 21 23 25 25 23 20 18 18 17 18 19 21 22 22 20 18 18 19 19 20 20 21 21 22 22 22 23 24 24 24 25 25 25 26 26 27 27 28 29 30 30 30 31 31 31 31 32 32 32 33 33 34 34 35 35 36 37 38 39 40 42 43 44 45 47
23 23 21 20 19 19 19 19 21 24 26 28 27 25 22 21 21 19 18 18 19 20 20 20 20 19 18 20 22 22 21 20 19 19 18 17 18 19 20 21 21 21 22 22 22 23 23 24 24 24 25 25 25 26 26 26 27 28 29 30 30 31 31 31 32 32 32 32 33 33 34 34 35 36 37 38 39 41 42 44 45 46 47 48 49
21 21 21 20 19 20 20 20 20 22 24 27 28 27 25 25 25 25 24 23 22 21 19 19 19 18 18 19 22 24 24 22 20 21 21 20 20 20 20 21 21 21 22 22 23 23 24 24 24 24 25 25 25 26 26 26 27 28 29 29 30 31 31 32 32 32 32 32 33 33 34 35 36 37 39 40 42 43 45 46 47 48 48 48 49
22 22 21 20 19 20 22 22 22 23 24 26 27 27 26 26 26 26 25 24 23 22 20 19 18 18 18 19 20 22 23 22 22 23 23 23 22 22 22 22 23 23 23 23 23 24 24 24 24 24 25 25 25 26 26 27 27 28 29 29 30 31 31 32 32 32 33 33 33 34 35 37 38 39 41 43 44 45 46 46 47 47 47 46 46
24 23 21 19 19 19 21 22 23 23 24 26 27 28 27 27 25 23 21 21 21 22 20 18 17 17 18 18 19 19 21 22 22 22 22 22 22 22 23 23 23 23 23 23 24 24 24 24 24 24 25 25 25 26 26 27 28 29 29 30 30 30 31 31 32 32 32 33 34 36 37 39 40 41 42 43 44 44 44 44 44 43 43 42 42
24 23 21 19 19 19 19 20 20 22 23 25 26 27 26 25 24 22 21 21 21 20 19 17 16 16 16 16 17 18 20 21 22 22 22 22 22 22 21 21 22 22 23 23 23 23 23 23 24 24 25 25 26 27 27 28 28 29 29 29 30 30 31 31 32 33 34 35 37 38 39 40 40 41 41 41 41 40 40 40 39 38 38 38 37
23 22 20 18 18 19 19 18 18 18 19 20 22 22 22 23 23 23 23 22 21 20 18 15 15 15 15 15 16 18 20 21 21 22 21 21 20 20 20 21 21 22 22 23 23 23 23 24 25 25 26 26 26 27 28 28 28 28 29 29 29 30 31 32 33 35 36 37 38 38 38 38 38 38 38 37 37 36 36 35 35 34 34 34 34
22 21 20 18 18 18 18 17 16 16 17 17 18 19 21 22 23 23 22 21 22 22 20 16 14 14 15 15 17 18 19 20 20 21 20 20 19 19 20 20 21 22 23 23 23 24 24 25 25 25 26 26 26 27 27 28 28 28 29 29 30 31 32 33 34 35 35 36 36 35 35 35 35 34 34 33 33 32 32 32 32 32 33 33 34
22 22 21 20 19 19 18 17 17 17 18 19 19 20 21 22 22 21 22 22 23 22 21 18 16 15 15 15 17 18 19 20 20 20 20 20 19 20 20 20 21 22 22 23 23 24 25 25 25 25 25 25 25 26 26 27 28 28 29 30 30 31 31 32 32 32 33 33 32 32 31 31 31 30 30 30 30 30 31 31 32 33 33 34 34
Wind_Direction
201 202 202 202 201 198 198 200 200 202 203 201 198 197 198 198 197 197 197 194 194 194 197 199 198 197 198 199 197 197 200 204 205 205 206 209 210 211 214 215 217 220 222 223 227 229 231 232 234 237 239 240 243 243 242 244 246 252 260 267 275 279 276 273 272 272 274 279 283 286 287 289 292 295 296 297 299 302 304 304 306 308 308 307 307
205 205 206 205 204 200 200 201 202 205 204 200 200 200 199 199 199 199 199 198 199 198 196 198 201 202 203 203 202 200 202 205 208 209 211 214 216 215 219 221 221 223 224 225 227 230 232 234 234 236 238 241 245 248 250 253 255 257 260 264 267 271 270 269 271 272 270 274 277 280 285 290 295 297 297 297 299 300 300 300 302 307 310 311 312
209 209 210 210 207 204 203 202 200 204 205 202 202 202 201 202 202 201 200 200 204 205 201 199 201 202 204 205 205 205 207 208 210 211 212 214 216 217 219 222 223 223 224 225 227 230 231 234 237 239 241 243 247 251 254 259 263 264 265 264 264 266 267 269 272 273 271 272 276 280 286 291 294 294 295 299 303 304 304 307 311 316 318 317 312
211 211 211 212 211 208 207 205 202 203 204 204 205 205 203 203 204 204 204 205 206 209 209 208 207 204 202 202 202 205 207 209 212 214 214 215 216 217 218 221 224 225 227 228 229 231 232 235 238 239 240 242 244 245 247 251 258 263 264 264 263 265 268 272 275 277 279 283 285 285 285 287 289 290 293 300 305 305 307 315 319 317 314 311 305
212 212 213 213 213 213 211 209 207 205 205 206 208 210 208 205 205 205 206 208 209 211 211 212 215 212 206 201 200 204 206 207 210 215 216 217 217 218 218 221 224 225 228 231 231 232 232 234 236 237 237 238 238 240 243 246 250 255 260 263 266 269 272 276 279 282 285 283 281 282 284 287 290 292 297 299 298 299 306 313 311 305 304 303 300
212 211 213 215 215 215 213 212 211 209 208 209 211 214 213 211 211 210 209 210 211 213 213 214 217 217 214 209 205 208 210 208 209 212 216 219 220 221 220 220 223 226 227 228 229 230 232 234 236 237 238 241 242 243 245 247 247 246 249 254 259 263 266 270 273 274 274 272 272 277 283 287 290 294 298 299 299 300 303 303 300 299 299 299 298
211 211 214 216 216 216 213 212 213 212 211 213 215 216 217 217 218 217 216 214 213 216 218 218 218 218 217 215 214 215 216 214 212 213 215 219 221 222 222 221 223 226 227 228 228 228 229 232 235 236 238 240 242 243 245 248 248 246 245 247 249 253 254 258 262 264 267 271 276 279 283 287 291 294 297 299 304 307 306 304 302 301 301 300 300
210 210 212 214 214 214 213 211 212 213 214 216 218 218 217 218 219 220 221 219 216 218 221 221 221 222 221 219 220 221 221 220 219 220 221 222 224 224 223 223 224 225 227 229 230 230 230 232 234 235 235 234 236 240 245 248 249 250 251 248 247 252 257 262 266 270 275 279 283 286 288 290 292 294 295 299 304 307 306 305 305 301 299 302 306
209 209 210 212 211 211 212 211 211 213 215 217 219 219 217 218 220 220 220 222 221 220 221 222 221 225 227 226 226 227 226 226 225 226 227 226 227 228 227 227 227 226 227 228 230 232 234 235 236 237 237 238 240 245 249 252 254 255 257 257 258 263 266 269 271 274 279 283 286 289 291 292 291 291 293 296 298 299 297 299 302 301 300 303 305
206 207 208 209 211 212 212 212 212 213 215 216 219 219 219 221 224 223 221 223 225 223 223 223 223 225 228 228 229 230 230 229 227 229 231 230 229 230 230 231 230 229 230 230 231 233 237 238 238 239 242 243 244 245 247 252 256 259 261 263 264 265 265 267 270 274 280 284 288 290 292 294 293 292 292 294 295 296 296 297 297 298 298 297 297
206 206 209 209 211 214 214 213 214 214 215 217 220 221 220 220 224 226 225 226 229 228 227 226 225 227 230 230 229 229 231 231 231 231 233 233 231 230 231 233 234 233 233 235 236 238 241 243 243 243 244 244 244 246 248 252 257 259 258 257 258 260 261 264 269 276 282 286 288 289 291 291 289 289 290 291 293 295 296 296 296 296 297 296 295
214 208 209 210 213 216 217 217 217 217 218 219 221 224 224 222 223 225 227 229 232 234 233 232 229 229 231 233 233 233 233 233 234 234 234 235 235 235 234 234 236 236 235 236 240 244 247 251 250 248 247 246 246 248 250 253 255 255 254 254 256 260 263 266 271 276 282 286 287 289 289 289 288 288 290 291 293 295 296 297 297 297 297 299 300
225 220 217 216 217 219 221 222 221 221 222 224 226 228 229 229 228 226 227 230 233 236 237 238 237 235 235 238 241 240 239 238 239 238 237 237 238 239 239 238 240 243 241 239 241 245 249 252 250 247 248 249 249 250 252 254 256 257 258 260 262 265 268 273 277 281 283 285 286 287 287 289 290 291 292 292 294 295 295 296 297 297 297 300 302
221 225 227 228 227 224 224 226 226 225 226 228 231 232 232 233 233 231 230 230 232 235 237 238 239 238 237 239 240 241 242 242 242 241 241 241 241 242 242 240 241 245 245 243 243 245 248 251 251 251 252 254 254 255 256 257 258 259 262 264 266 269 273 276 280 284 284 284 285 285 286 287 289 290 290 291 293 295 296 296 297 297 298 300 302
218 222 230 235 234 227 223 225 228 229 231 232 234 236 236 236 235 235 234 232 232 234 235 236 238 238 237 238 239 241 241 240 240 240 243 245 245 245 245 244 242 244 245 245 246 247 248 250 252 254 256 257 258 258 259 259 258 259 262 266 269 271 273 276 278 280 281 282 284 285 285 286 287 287 287 289 293 297 298 298 299 300 300 301 302
226 227 230 232 231 226 223 225 229 233 235 236 237 238 239 239 239 238 237 236 235 234 235 236 238 237 238 239 240 241 240 240 238 238 240 244 246 247 248 249 249 247 245 245 246 247 249 250 252 254 256 258 259 260 261 262 262 263 266 268 270 271 271 272 273 274 276 280 283 283 283 284 284 285 287 291 295 297 297 298 300 301 302 303 303
226 230 232 231 229 228 227 228 231 235 238 238 238 238 238 241 242 241 239 240 241 242 241 241 242 241 240 239 240 240 240 240 240 239 239 241 243 245 247 249 250 250 249 248 247 247 249 251 254 257 259 260 261 261 262 264 265 267 268 269 270 270 269 270 272 273 276 279 280 280 279 280 282 284 287 290 292 293 295 297 298 300 301 302 303
224 231 233 232 232 235 236 235 234 237 237 236 236 239 240 241 240 240 240 240 242 245 246 247 249 251 251 249 246 245 245 245 244 243 242 242 242 243 245 248 250 250 250 250 249 249 250 252 256 259 260 261 261 261 262 264 265 267 267 268 269 270 271 273 274 275 277 279 280 279 278 279 281 284 287 289 291 293 294 295 295 296 298 299 300
241 242 239 238 240 245 248 244 241 243 244 242 242 246 249 249 247 244 241 240 241 243 244 245 248 252 256 257 255 252 251 250 250 248 246 247 247 246 247 248 250 250 250 249 248 247 247 249 253 257 259 260 260 261 261 262 263 265 266 267 268 270 272 273 273 274 276 278 280 280 279 280 282 284 287 290 293 296 296 295 295 296 297 298 298
251 248 244 244 248 253 256 252 247 248 252 253 253 251 251 252 251 248 244 242 242 243 243 245 247 249 252 254 255 254 253 252 251 249 247 249 251 252 252 251 250 250 250 249 247 244 242 243 248 253 257 259 259 260 261 262 263 265 266 267 269 271 272 273 274 275 277 278 279 278 278 280 283 287 291 295 297 298 298 297 297 298 298 298 297
259 255 247 245 249 253 257 255 250 249 252 254 252 246 242 243 245 244 242 240 241 242 244 246 249 250 251 252 252 252 251 251 251 250 249 250 252 254 255 252 250 249 249 248 246 244 241 242 247 254 258 259 260 260 261 263 265 266 267 268 270 272 275 276 276 276 276 276 273 272 275 280 284 289 294 297 299 299 298 298 298 298 298 298 298
270 272 255 246 245 245 249 251 249 249 251 250 246 241 239 241 242 241 239 238 239 240 242 244 247 248 249 250 250 250 250 251 251 251 251 252 254 255 256 255 252 250 249 247 246 245 243 243 247 255 259 258 257 259 261 262 265 267 268 269 271 274 279 281 279 274 271 270 270 272 276 280 284 288 293 296 298 298 298 299 299 299 299 298 299
269 266 253 243 237 234 238 242 242 244 245 244 241 238 237 242 245 243 240 239 239 239 239 241 243 243 244 245 247 249 250 251 252 251 251 252 254 255 256 256 254 251 249 247 245 245 245 243 242 247 254 256 255 257 258 260 264 267 268 268 271 275 280 283 280 274 270 270 272 274 277 281 285 290 294 296 297 298 298 299 299 299 298 299 301
267 262 253 243 233 227 231 237 240 242 242 241 240 237 236 240 244 244 241 240 241 240 239 239 242 242 241 240 241 244 247 250 253 255 254 253 253 254 255 255 254 252 249 247 245 244 245 245 242 240 246 253 256 256 257 261 266 267 265 265 269 272 276 279 279 277 275 274 275 276 279 283 287 290 292 294 295 295 296 296 296 296 297 299 301
265 260 251 241 233 226 228 234 239 241 242 242 242 240 238 238 242 244 245 244 245 244 241 241 244 245 242 240 240 242 244 247 251 253 253 252 251 252 254 256 255 251 248 246 246 246 246 247 243 237 239 248 254 257 262 270 272 268 263 264 268 271 275 278 278 278 278 278 278 280 283 284 286 287 288 290 290 290 291 291 292 292 293 295 297
277 268 248 238 239 236 232 233 237 240 241 241 242 242 240 240 245 250 252 251 251 249 242 238 241 244 244 243 243 242 242 245 249 250 249 249 249 249 254 258 254 249 246 243 245 248 249 247 243 236 237 246 256 262 267 273 273 265 256 259 269 273 275 277 277 278 279 279 280 282 283 283 284 284 285 286 285 286 286 287 289 291 293 295 296
301 305 252 238 250 255 249 244 243 244 243 244 246 245 242 240 244 251 255 254 253 250 243 237 239 242 243 243 242 242 244 247 250 250 246 244 244 248 254 255 248 246 247 243 244 250 250 246 244 241 241 246 254 259 263 266 265 256 248 255 269 276 278 278 279 280 281 281 282 282 282 283 284 283 283 282 281 281 282 284 287 290 292 295 296
299 312 308 276 266 262 256 254 253 251 250 254 257 252 245 242 243 249 254 255 252 250 248 246 246 243 239 238 239 241 243 244 245 246 241 237 238 243 249 248 242 243 249 250 253 259 252 242 241 245 245 245 248 252 257 260 257 251 251 261 270 276 278 278 279 281 283 283 283 282 281 281 282 281 281 281 281 281 282 284 285 287 288 289 289
296 304 302 289 278 269 260 256 255 253 255 262 264 256 246 244 245 247 252 255 256 255 252 250 249 243 237 238 241 240 238 236 237 238 235 232 233 237 241 242 241 243 248 249 254 262 250 236 236 242 244 243 246 250 253 253 251 251 257 265 270 274 277 278 279 280 282 281 280 279 278 278 278 278 279 281 282 284 285 285 285 285 285 285 285
289 296 292 283 278 275 269 262 258 255 256 260 261 256 249 246 246 247 249 253 256 258 254 248 247 246 244 244 244 241 235 233 233 234 232 231 234 236 237 239 239 240 242 243 244 247 242 233 235 240 241 242 245 247 248 249 251 256 262 266 271 274 276 277 277 278 277 277 276 276 277 278 279 280 281 282 283 284 284 284 284 284 284 285 285
274 275 276 279 281 279 275 271 266 261 257 256 256 254 252 250 249 248 249 250 251 253 251 248 247 247 245 245 244 240 234 232 232 234 234 235 236 236 236 236 237 239 243 247 250 250 245 239 239 241 242 244 246 248 250 253 257 261 265 268 271 273 272 273 274 275 275 275 275 276 277 279 279 280 281 281 281 281 282 282 283 284 285 285 287
278 274 270 272 275 273 271 270 269 267 264 260 258 256 254 253 253 250 249 248 247 248 250 250 248 246 243 244 245 240 233 231 233 236 237 236 235 236 237 238 240 243 246 249 250 248 244 242 243 245 248 251 253 255 258 260 262 265 267 269 270 270 270 271 272 273 275 276 276 277 278 278 278 279 279 279 280 281 282 283 284 286 287 288 290
280 281 280 279 277 273 268 264 263 265 264 262 261 261 258 257 256 254 251 248 247 248 250 251 249 245 240 240 241 237 232 232 233 235 235 234 233 236 238 239 239 240 242 243 243 242 241 242 246 249 252 255 257 259 261 264 266 267 268 269 269 269 269 271 272 274 276 277 277 277 277 276 277 277 277 278 279 280 282 284 285 287 288 289 290
278 281 283 284 285 283 276 268 262 261 260 258 258 260 260 259 258 256 252 248 246 247 248 247 245 242 237 234 232 231 231 231 231 231 231 230 230 231 232 233 234 235 237 240 243 246 248 249 251 253 255 257 260 262 264 265 267 269 269 269 269 270 270 272 274 276 277 277 277 277 276 276 277 277 278 279 281 283 285 286 287 288 289 289 290
275 277 278 280 282 281 280 275 269 263 259 255 254 255 255 252 249 248 249 247 245 244 244 244 243 240 236 231 227 226 227 229 230 229 228 228 229 229 229 230 233 235 239 242 246 248 250 252 254 256 258 260 261 262 263 264 266 267 269 270 271 272 272 273 274 275 276 277 277 277 277 278 278 279 281 283 285 286 288 288 289 290 291 291 292
266 270 273 273 274 275 276 274 270 264 256 249 249 252 253 248 241 239 242 245 245 244 244 244 244 242 239 235 231 227 227 230 233 233 231 231 232 233 233 235 236 239 241 244 247 249 252 254 256 258 259 260 261 261 262 264 265 267 268 270 271 272 273 273 273 274 274 275 276 277 278 279 280 281 283 284 285 286 287 288 289 290 291 291 292
253 258 262 264 268 271 273 272 271 268 262 254 249 250 253 253 248 245 245 246 247 247 249 250 249 247 243 240 237 234 232 234 236 236 235 235 236 238 240 241 242 244 246 247 249 251 253 254 256 257 258 259 260 261 262 264 264 266 268 269 270 272 273 274 274 275 276 277 278 280 281 282 283 284 285 286 287 288 289 290 291 292 292 293 293
247 247 250 253 257 261 264 266 269 271 271 269 264 260 259 259 253 249 248 249 249 249 250 251 252 251 248 243 241 241 241 242 242 242 241 241 241 243 244 245 246 248 250 251 252 252 253 254 255 257 258 260 261 262 263 264 265 267 268 270 272 273 275 276 276 277 278 280 280 282 283 284 286 287 288 289 290 291 292 292 293 293 293 293 294
243 243 244 247 249 252 255 257 262 266 271 273 272 270 269 267 262 256 253 252 254 257 255 248 249 256 256 250 245 245 245 245 246 246 246 246 247 248 249 249 249 249 250 251 252 253 255 256 256 256 258 259 260 262 264 265 267 269 270 272 274 275 276 276 277 278 279 280 281 282 283 285 287 288 289 290 290 291 291 292 292 292 293 294 295
244 243 244 246 248 251 253 255 260 266 270 271 271 270 270 269 267 263 258 253 252 255 257 255 256 262 264 260 254 251 250 250 250 252 252 251 251 252 252 252 251 250 250 249 249 249 250 252 254 255 257 260 263 265 268 269 270 272 273 274 275 276 276 277 278 279 281 282 283 285 286 287 288 289 290 290 291 291 292 293 293 294 295 296 297
247 247 248 250 251 253 254 255 257 261 265 267 268 268 270 269 266 264 262 257 252 250 251 253 257 261 264 267 267 263 260 259 258 258 258 258 256 255 255 255 254 254 253 250 249 248 250 252 255 258 261 264 267 269 271 272 273 274 275 275 276 277 278 279 281 282 284 285 286 287 288 288 289 290 290 291 292 293 294 295 295 296 297 298 298
248 251 254 257 258 257 256 255 254 255 257 260 262 265 269 271 270 268 267 264 258 253 249 247 249 250 250 257 268 270 266 265 265 265 264 262 259 257 257 256 254 253 252 251 250 252 254 257 260 262 264 266 268 269 271 273 274 276 276 277 278 279 280 282 283 284 286 287 288 289 289 290 291 291 292 293 294 294 295 296 297 297 298 298 298
247 250 254 257 260 260 258 256 254 253 254 255 256 257 261 267 270 271 271 270 268 263 256 249 248 246 242 243 252 261 263 264 267 267 262 256 252 250 249 248 247 248 250 252 254 256 259 261 264 265 267 268 269 270 272 273 275 277 278 279 281 282 283 284 285 286 287 288 289 291 291 292 292 293 293 294 295 296 297 297 298 298 298 299 299
251 251 252 253 256 260 261 258 256 254 253 253 253 253 254 258 262 266 269 271 271 271 266 258 253 251 247 244 246 252 257 262 266 265 258 250 245 243 243 244 246 249 252 255 258 261 263 265 266 267 269 270 271 272 274 275 277 278 279 280 282 283 284 285 286 287 288 289 290 291 292 292 293 294 295 296 297 297 298 298 298 299 299 299 299
258 255 253 252 253 257 260 259 256 253 252 252 252 251 250 252 256 261 266 267 265 265 265 261 254 250 249 248 249 252 255 258 259 259 258 255 252 249 249 251 253 255 257 259 261 263 265 266 267 269 270 271 272 274 276 278 279 279 281 282 283 284 285 287 288 288 289 290 291 292 292 293 294 295 296 297 297 297 298 298 298 298 298 298 298
259 258 258 258 256 256 257 255 252 250 249 249 250 249 248 249 252 255 258 259 258 256 257 257 252 246 244 245 247 250 252 252 250 249 250 251 251 251 253 255 257 259 262 263 264 265 266 268 270 272 273 274 276 278 280 281 282 283 284 285 286 287 287 288 289 290 291 291 292 292 293 294 295 295 296 297 297 297 298 298 298 298 299 299 299
257 258 258 258 255 254 255 253 250 248 247 246 247 247 245 244 244 245 248 251 253 252 250 248 246 245 244 244 244 245 245 246 246 247 248 250 250 251 253 255 258 260 263 264 264 266 268 271 273 275 277 279 281 282 283 284 285 285 286 287 288 288 289 290 290 291 292 292 293 294 295 296 296 297 297 297 297 298 298 299 299 300 301 301 302
256 256 255 253 251 252 253 252 249 247 246 246 246 245 243 240 238 238 240 244 249 251 249 243 242 245 247 245 242 242 242 242 244 246 249 251 252 254 257 259 261 263 265 266 268 271 274 276 279 280 282 283 284 284 285 285 286 286 287 288 289 289 290 291 292 293 294 294 295 296 297 297 297 298 298 298 299 300 301 301 302 303 303 303 303
255 256 254 252 250 249 248 248 247 246 247 248 249 248 246 242 239 238 238 240 244 248 248 245 243 246 246 241 239 241 243 244 246 248 251 253 255 258 261 264 267 269 271 273 276 278 279 281 282 283 283 284 285 285 286 286 287 288 288 289 290 291 292 293 294 295 296 296 297 298 298 299 299 300 301 302 302 303 303 304 304 304 305 305 306
250 253 253 251 249 247 244 245 247 247 247 249 250 249 248 247 246 245 244 243 244 245 246 245 244 245 244 241 240 243 246 248 250 252 254 255 257 259 262 264 268 271 273 276 278 279 280 280 281 282 283 284 285 285 286 287 288 289 290 291 293 294 295 295 296 297 297 298 299 300 300 301 302 302 303 304 304 305 305 306 307 308 309 309 309
243 246 248 248 248 246 243 243 246 249 250 250 251 251 251 252 251 250 247 245 244 244 245 245 244 241 239 240 242 246 248 250 252 254 257 259 260 261 263 264 267 269 271 274 276 277 278 279 280 281 283 284 285 286 288 289 291 292 294 295 296 297 297 298 298 299 300 300 301 302 302 303 303 304 305 307 308 309 309 310 310 310 310 309 309
Height
3221 3222 3223 3224 3225 3226 3227 3229 3231 3232 3233 3234 3235 3236 3237 3238 3239 3240 3240 3241 3242 3243 3243 3244 3244 3245 3245 3246 3246 3247 3248 3248 3249 3249 3250 3250 3251 3251 3252 3252 3253 3253 3253 3254 3254 3254 3254 3255 3255 3255 3254 3254 3254 3254 3254 3254 3254 3254 3254 3254 3254 3254 3254 3253 3253 3253 3252 3251 3251 3250 3249 3248 3247 3247 3246 3245 3244 3243 3242 3241 3240 3239 3238 3236 3236
3220 3221 3222 3223 3224 3225 3226 3227 3229 3231 3232 3233 3234 3235 3236 3237 3238 3239 3240 3241 3241 3242 3243 3243 3244 3244 3244 3245 3245 3246 3247 3247 3248 3248 3249 3249 3250 3250 3251 3251 3251 3252 3252 3252 3252 3252 3253 3253 3253 3253 3253 3253 3253 3253 3253 3253 3252 3252 3252 3252 3252 3252 3252 3252 3252 3251 3251 3250 3249 3248 3247 3247 3246 3245 3244 3243 3243 3242 3241 3240 3239 3238 3237 3236 3235
3219 3220 3220 3222 3223 3224 3225 3226 3228 3229 3231 3232 3233 3234 3236 3236 3237 3238 3239 3240 3241 3241 3242 3242 3243 3243 3244 3244 3245 3245 3246 3246 3247 3247 3248 3248 3248 3249 3249 3250 3250 3250 3250 3250 3251 3251 3251 3251 3251 3251 3251 3251 3251 3251 3251 3251 3251 3251 3251 3251 3251 3251 3250 3250 3250 3250 3249 3248 3247 3247 3246 3245 3244 3244 3243 3242 3241 3240 3240 3239 3238 3237 3236 3235 3234
3217 3218 3219 3220 3222 3223 3224 3225 3226 3228 3229 3231 3232 3233 3234 3235 3236 3237 3238 3239 3240 3241 3241 3242 3242 3243 3243 3244 3244 3245 3245 3246 3246 3246 3247 3247 3247 3248 3248 3248 3249 3249 3249 3249 3249 3249 3249 3249 3249 3249 3250 3250 3250 3250 3250 3249 3249 3249 3249 3249 3249 3249 3249 3249 3248 3248 3247 3247 3246 3245 3245 3244 3243 3242 3242 3241 3240 3239 3238 3238 3237 3236 3235 3234 3233
3215 3216 3218 3219 3220 3222 3223 3224 3225 3226 3228 3229 3230 3231 3232 3233 3234 3235 3236 3237 3238 3239 3240 3241 3241 3242 3242 3243 3243 3244 3244 3245 3245 3246 3246 3246 3247 3247 3247 3247 3247 3247 3247 3247 3248 3248 3248 3248 3248 3248 3248 3248 3248 3248 3248 3248 3248 3248 3248 3248 3247 3247 3247 3247 3246 3246 3246 3245 3245 3244 3243 3243 3242 3241 3240 3239 3239 3238 3237 3237 3236 3235 3234 3233 3232
3213 3215 3216 3217 3219 3220 3221 3223 3224 3225 3226 3228 3229 3230 3231 3231 3232 3233 3235 3236 3236 3237 3238 3239 3240 3241 3241 3242 3242 3243 3243 3243 3244 3244 3245 3245 3246 3246 3246 3246 3246 3246 3246 3246 3246 3246 3246 3246 3246 3246 3246 3247 3247 3247 3247 3247 3247 3246 3246 3246 3246 3246 3246 3245 3245 3245 3244 3244 3244 3243 3243 3242 3241 3240 3239 3238 3237 3237 3236 3236 3234 3233 3232 3231 3230
3212 3213 3214 3215 3217 3218 3219 3221 3222 3224 3225 3226 3227 3228 3229 3230 3231 3232 3233 3234 3235 3236 3236 3237 3238 3239 3240 3240 3241 3241 3242 3242 3242 3243 3243 3244 3244 3244 3245 3245 3245 3245 3245 3245 3245 3245 3245 3245 3245 3245 3245 3246 3246 3246 3246 3246 3246 3245 3245 3245 3245 3245 3244 3244 3244 3243 3243 3243 3242 3242 3241 3241 3240 3239 3238 3237 3236 3235 3234 3233 3233 3232 3230 3229 3228
3209 3211 3212 3213 3215 3216 3217 3219 3220 3222 3223 3224 3225 3226 3227 3228 3229 3230 3231 3232 3233 3234 3235 3236 3236 3237 3238 3239 3239 3239 3240 3241 3241 3241 3242 3242 3243 3243 3243 3243 3243 3243 3243 3243 3243 3243 3243 3243 3243 3244 3244 3244 3244 3244 3244 3244 3244 3244 3244 3243 3243 3243 3243 3243 3242 3242 3242 3241 3241 3240 3240 3239 3238 3237 3237 3236 3235 3234 3232 3231 3230 3230 3229 3227 3226
3207 3208 3209 3211 3212 3213 3215 3216 3218 3219 3221 3222 3223 3224 3225 3226 3226 3227 3228 3229 3230 3232 3233 3234 3234 3235 3236 3237 3237 3238 3238 3239 3239 3240 3240 3241 3241 3241 3242 3242 3242 3242 3241 3241 3242 3242 3242 3242 3242 3242 3243 3243 3243 3243 3243 3243 3243 3243 3243 3243 3242 3242 3242 3241 3241 3241 3240 3240 3240 3239 3238 3238 3237 3236 3235 3234 3233 3232 3231 3229 3228 3228 3227 3226 3224
3205 3206 3207 3208 3210 3211 3212 3214 3215 3217 3218 3220 3221 3222 3223 3224 3224 3224 3226 3227 3228 3229 3230 3231 3232 3233 3234 3234 3235 3236 3236 3237 3237 3238 3238 3239 3239 3240 3240 3240 3240 3240 3240 3240 3240 3240 3240 3240 3240 3241 3241 3242 3242 3242 3242 3242 3242 3242 3242 3241 3241 3240 3240 3240 3239 3239 3239 3238 3238 3237 3237 3236 3235 3234 3233 3232 3231 3230 3229 3228 3227 3226 3225 3224 3223
3202 3204 3205 3206 3207 3208 3210 3211 3212 3214 3216 3217 3219 3220 3221 3222 3222 3223 3224 3225 3226 3227 3228 3229 3230 3231 3231 3232 3233 3234 3235 3235 3236 3236 3237 3237 3237 3238 3238 3238 3239 3239 3239 3239 3239 3238 3238 3238 3239 3240 3240 3240 3240 3240 3240 3240 3240 3240 3239 3239 3239 3239 3238 3238 3238 3238 3237 3237 3236 3235 3234 3234 3233 3232 3231 3230 3229 3228 3227 3225 3224 3223 3222 3221 3221
3200 3202 3203 3204 3205 3206 3208 3209 3210 3212 3213 3215 3216 3217 3218 3220 3221 3222 3223 3224 3225 3226 3227 3228 3229 3229 3229 3230 3232 3233 3233 3234 3235 3235 3235 3235 3235 3236 3236 3236 3236 3236 3237 3237 3237 3237 3237 3237 3238 3238 3238 3238 3238 3238 3238 3238 3238 3238 3237 3237 3237 3237 3237 3236 3236 3235 3235 3234 3234 3233 3232 3231 3231 3230 3229 3228 3227 3226 3225 3223 3222 3221 3220 3219 3218
3197 3199 3201 3203 3204 3205 3206 3207 3208 3210 3211 3212 3213 3215 3216 3217 3219 3220 3221 3222 3223 3224 3225 3226 3227 3227 3228 3229 3230 3231 3232 3232 3233 3233 3233 3233 3234 3234 3233 3233 3234 3235 3235 3235 3236 3236 3236 3236 3236 3236 3236 3236 3236 3237 3236 3236 3236 3236 3236 3235 3235 3235 3234 3234 3234 3233 3233 3232 3232 3231 3230 3229 3228 3228 3227 3226 3225 3224 3223 3221 3220 3219 3218 3217 3216
3193 3197 3199 3201 3202 3204 3205 3206 3207 3208 3208 3209 3211 3212 3213 3215 3216 3217 3218 3219 3221 3222 3223 3224 3224 3225 3226 3227 3228 3229 3230 3230 3231 3231 3231 3232 3232 3231 3231 3231 3232 3232 3233 3234 3234 3234 3234 3234 3234 3234 3234 3234 3234 3234 3234 3234 3234 3234 3234 3233 3232 3232 3232 3232 3232 3231 3231 3230 3229 3228 3227 3227 3226 3226 3225 3223 3222 3221 3220 3219 3218 3217 3216 3215 3213
3190 3194 3197 3198 3200 3201 3202 3203 3204 3205 3206 3207 3208 3209 3210 3212 3213 3214 3215 3217 3218 3219 3220 3221 3222 3223 3223 3224 3225 3226 3227 3228 3228 3229 3229 3229 3229 3229 3228 3229 3229 3230 3231 3231 3232 3232 3232 3232 3232 3232 3232 3232 3232 3232 3232 3232 3232 3232 3231 3230 3230 3230 3230 3230 3229 3229 3228 3227 3226 3225 3225 3224 3224 3223 3222 3221 3220 3219 3217 3217 3216 3215 3214 3213 3211
3188 3190 3192 3195 3197 3198 3200 3201 3202 3203 3204 3204 3204 3206 3207 3209 3210 3211 3212 3213 3214 3215 3217 3218 3219 3220 3221 3221 3222 3223 3224 3224 3225 3226 3226 3227 3227 3226 3226 3227 3227 3227 3228 3229 3229 3229 3229 3230 3230 3230 3230 3230 3230 3230 3230 3230 3229 3229 3228 3228 3227 3227 3227 3226 3226 3225 3225 3224 3223 3222 3222 3221 3221 3220 3219 3218 3217 3215 3214 3214 3213 3212 3211 3210 3208
3185 3186 3188 3191 3193 3195 3196 3197 3198 3199 3200 3200 3200 3202 3204 3205 3206 3207 3208 3209 3210 3211 3212 3214 3215 3216 3217 3218 3218 3219 3220 3221 3222 3222 3223 3223 3223 3223 3223 3224 3224 3225 3225 3226 3226 3226 3226 3227 3227 3227 3227 3227 3227 3227 3227 3227 3227 3226 3226 3225 3224 3224 3224 3223 3223 3222 3222 3221 3220 3219 3218 3218 3218 3217 3216 3215 3213 3212 3212 3210 3209 3209 3208 3207 3205
3182 3182 3183 3187 3191 3192 3193 3194 3194 3194 3192 3193 3196 3199 3201 3201 3202 3204 3205 3205 3206 3207 3208 3209 3210 3211 3212 3213 3214 3215 3216 3217 3217 3218 3219 3219 3219 3220 3220 3220 3221 3221 3221 3222 3222 3223 3223 3224 3224 3224 3224 3224 3224 3224 3224 3224 3224 3223 3223 3222 3221 3221 3220 3220 3220 3219 3218 3217 3216 3215 3215 3215 3215 3214 3212 3211 3210 3209 3209 3207 3206 3205 3204 3203 3202
3181 3178 3179 3184 3188 3189 3189 3190 3190 3187 3185 3189 3194 3197 3198 3198 3199 3201 3201 3202 3203 3203 3204 3205 3206 3207 3208 3209 3210 3211 3212 3212 3213 3214 3215 3215 3215 3216 3216 3216 3217 3217 3217 3218 3219 3219 3220 3220 3221 3221 3221 3221 3221 3221 3221 3221 3220 3220 3219 3219 3219 3218 3218 3217 3217 3216 3215 3214 3213 3212 3212 3212 3212 3211 3209 3208 3207 3206 3205 3204 3203 3202 3201 3200 3199
3178 3176 3178 3183 3185 3185 3185 3186 3185 3182 3181 3187 3192 3194 3194 3194 3194 3195 3197 3198 3199 3199 3200 3201 3202 3203 3204 3204 3205 3206 3207 3208 3209 3209 3210 3210 3211 3211 3211 3212 3212 3213 3213 3214 3215 3215 3216 3216 3217 3217 3217 3217 3217 3217 3217 3217 3217 3217 3216 3216 3216 3215 3215 3214 3213 3212 3212 3211 3210 3209 3208 3208 3208 3207 3206 3206 3205 3204 3202 3201 3200 3200 3199 3197 3196
3174 3174 3178 3181 3181 3181 3180 3180 3179 3178 3180 3184 3187 3189 3189 3188 3187 3190 3193 3193 3193 3194 3196 3197 3198 3198 3199 3200 3200 3201 3202 3203 3204 3205 3205 3206 3206 3206 3205 3206 3207 3208 3208 3209 3210 3211 3212 3212 3212 3213 3213 3213 3213 3213 3213 3213 3213 3213 3213 3213 3212 3212 3211 3210 3210 3209 3209 3208 3207 3206 3205 3205 3204 3204 3203 3203 3202 3201 3200 3199 3198 3197 3196 3195 3194
3171 3173 3175 3177 3177 3177 3176 3175 3175 3176 3178 3181 3183 3184 3184 3183 3182 3185 3187 3187 3188 3189 3191 3192 3193 3193 3194 3195 3195 3195 3196 3197 3198 3200 3201 3200 3200 3200 3200 3201 3202 3203 3203 3205 3206 3207 3208 3208 3209 3209 3209 3210 3210 3209 3209 3210 3210 3210 3210 3210 3209 3208 3208 3207 3206 3206 3206 3205 3205 3204 3203 3202 3202 3201 3201 3200 3199 3198 3197 3196 3195 3194 3192 3192 3191
3168 3170 3172 3174 3174 3174 3173 3173 3173 3174 3175 3177 3179 3181 3181 3180 3179 3181 3182 3183 3184 3184 3186 3188 3187 3187 3189 3190 3190 3190 3191 3192 3193 3194 3196 3195 3195 3195 3195 3196 3197 3197 3198 3200 3201 3202 3203 3204 3204 3205 3206 3206 3206 3205 3205 3206 3207 3207 3207 3207 3206 3206 3205 3205 3204 3203 3203 3203 3202 3201 3200 3199 3199 3198 3197 3197 3196 3195 3194 3193 3192 3191 3189 3188 3188
3165 3166 3168 3170 3171 3171 3171 3171 3171 3171 3172 3174 3176 3178 3179 3178 3176 3176 3178 3179 3179 3179 3182 3184 3183 3182 3184 3186 3186 3186 3187 3187 3188 3189 3190 3190 3190 3190 3190 3191 3192 3193 3194 3195 3196 3197 3198 3199 3199 3200 3202 3203 3202 3202 3202 3204 3204 3204 3204 3204 3204 3203 3203 3202 3201 3200 3200 3200 3199 3199 3198 3197 3196 3195 3194 3194 3193 3192 3191 3190 3190 3188 3187 3186 3185
3163 3163 3165 3166 3168 3169 3169 3169 3169 3169 3170 3171 3172 3174 3176 3175 3174 3173 3174 3174 3174 3176 3180 3182 3180 3179 3180 3181 3182 3183 3183 3183 3184 3184 3185 3185 3185 3185 3185 3186 3189 3189 3189 3190 3192 3192 3193 3196 3196 3196 3198 3199 3198 3199 3200 3201 3202 3202 3202 3201 3201 3201 3201 3200 3199 3198 3198 3197 3197 3196 3195 3194 3193 3192 3192 3191 3191 3190 3189 3188 3187 3186 3185 3184 3183
3160 3161 3162 3163 3165 3166 3166 3166 3167 3167 3167 3168 3169 3169 3170 3170 3170 3171 3171 3171 3171 3174 3178 3179 3178 3176 3177 3177 3177 3178 3179 3180 3180 3180 3181 3181 3182 3182 3182 3183 3185 3185 3184 3186 3188 3188 3189 3192 3193 3193 3194 3194 3195 3196 3197 3198 3199 3200 3199 3199 3199 3199 3198 3197 3196 3195 3195 3195 3194 3194 3193 3192 3191 3190 3189 3189 3188 3188 3187 3186 3185 3184 3183 3182 3181
3157 3158 3160 3161 3162 3163 3164 3164 3164 3164 3164 3165 3165 3165 3166 3166 3167 3168 3169 3169 3170 3172 3174 3174 3174 3173 3174 3174 3174 3175 3176 3176 3176 3177 3177 3178 3179 3179 3179 3180 3181 3181 3181 3183 3185 3184 3185 3187 3189 3190 3190 3191 3193 3194 3195 3196 3196 3196 3196 3196 3196 3195 3195 3194 3193 3192 3192 3192 3191 3191 3190 3189 3188 3187 3186 3186 3186 3185 3185 3184 3183 3182 3181 3179 3178
3154 3155 3157 3159 3160 3161 3162 3161 3161 3161 3162 3162 3162 3162 3162 3163 3164 3165 3165 3166 3167 3168 3169 3170 3170 3171 3172 3172 3171 3172 3173 3173 3173 3173 3174 3175 3176 3176 3176 3177 3178 3179 3180 3181 3182 3181 3182 3184 3187 3187 3187 3188 3191 3192 3192 3193 3193 3193 3193 3193 3193 3192 3191 3191 3190 3190 3189 3189 3188 3188 3187 3186 3185 3184 3183 3183 3183 3182 3182 3181 3180 3179 3178 3177 3176
3151 3152 3154 3156 3158 3159 3160 3160 3160 3160 3159 3159 3159 3160 3160 3160 3161 3162 3162 3163 3163 3164 3165 3167 3167 3168 3169 3169 3169 3170 3170 3170 3171 3171 3171 3172 3173 3174 3174 3175 3176 3177 3178 3179 3180 3180 3180 3181 3184 3185 3185 3186 3188 3189 3189 3190 3190 3190 3190 3190 3189 3189 3188 3188 3187 3187 3187 3187 3186 3186 3185 3184 3183 3182 3181 3180 3180 3179 3178 3178 3177 3176 3175 3174 3173
3149 3150 3151 3153 3155 3156 3158 3158 3158 3158 3158 3157 3157 3157 3157 3158 3159 3159 3160 3160 3160 3161 3162 3163 3163 3164 3166 3166 3167 3167 3167 3168 3168 3169 3169 3170 3171 3172 3172 3173 3174 3175 3176 3177 3178 3179 3179 3180 3181 3182 3182 3183 3184 3185 3186 3187 3187 3187 3187 3187 3187 3186 3185 3184 3184 3184 3184 3184 3184 3183 3183 3182 3181 3180 3179 3178 3177 3176 3175 3174 3173 3172 3171 3170 3169
3147 3148 3149 3151 3152 3153 3153 3154 3155 3155 3155 3154 3154 3154 3154 3155 3155 3156 3157 3158 3158 3158 3158 3159 3160 3161 3162 3162 3163 3164 3165 3165 3166 3166 3167 3168 3169 3170 3171 3172 3173 3173 3174 3175 3176 3177 3177 3178 3179 3179 3180 3181 3181 3182 3183 3184 3184 3184 3184 3184 3184 3183 3182 3182 3181 3182 3182 3182 3181 3181 3180 3179 3178 3177 3176 3175 3174 3173 3171 3170 3169 3168 3167 3166 3165
3144 3145 3147 3148 3149 3150 3150 3151 3151 3151 3151 3151 3151 3151 3152 3152 3152 3153 3154 3154 3155 3155 3155 3156 3156 3157 3158 3159 3159 3160 3162 3163 3163 3164 3165 3166 3167 3168 3169 3170 3171 3171 3172 3173 3174 3174 3175 3176 3176 3177 3178 3178 3179 3179 3180 3180 3181 3181 3181 3181 3181 3180 3180 3179 3179 3179 3179 3179 3178 3178 3177 3176 3174 3173 3172 3171 3170 3169 3168 3167 3166 3165 3164 3163 3162
3142 3143 3144 3145 3146 3147 3148 3148 3148 3149 3149 3148 3147 3148 3148 3149 3150 3151 3151 3152 3152 3152 3153 3153 3153 3154 3155 3156 3157 3158 3159 3160 3161 3162 3163 3163 3164 3166 3167 3168 3168 3169 3170 3171 3172 3172 3173 3173 3174 3175 3175 3176 3177 3177 3177 3177 3177 3177 3177 3178 3178 3178 3177 3177 3177 3176 3176 3175 3175 3174 3173 3172 3171 3170 3169 3167 3166 3165 3165 3164 3162 3161 3161 3159 3158
3141 3142 3142 3143 3144 3145 3145 3146 3146 3146 3147 3147 3146 3146 3146 3146 3147 3148 3149 3149 3149 3150 3150 3151 3152 3152 3153 3154 3155 3156 3156 3157 3158 3159 3160 3161 3162 3163 3164 3165 3166 3167 3168 3169 3169 3170 3171 3172 3172 3173 3173 3174 3174 3174 3174 3174 3174 3174 3174 3175 3175 3175 3175 3174 3174 3173 3172 3171 3171 3170 3169 3168 3167 3166 3165 3164 3163 3162 3161 3160 3159 3158 3157 3155 3154
3140 3140 3141 3142 3143 3143 3143 3144 3144 3144 3144 3145 3145 3145 3144 3144 3145 3145 3146 3147 3147 3147 3148 3149 3150 3151 3152 3153 3154 3154 3155 3155 3156 3157 3158 3159 3160 3161 3162 3163 3164 3165 3166 3167 3167 3168 3169 3169 3170 3170 3171 3171 3171 3171 3171 3171 3171 3171 3171 3171 3171 3171 3171 3171 3170 3169 3168 3167 3166 3166 3165 3164 3163 3162 3161 3160 3159 3158 3157 3156 3154 3153 3152 3151 3150
3139 3139 3140 3140 3141 3142 3142 3142 3142 3143 3143 3143 3143 3143 3143 3143 3143 3143 3143 3144 3144 3145 3146 3147 3148 3149 3150 3151 3152 3153 3153 3154 3154 3155 3156 3157 3158 3159 3160 3161 3162 3163 3163 3164 3165 3166 3166 3166 3167 3167 3167 3168 3168 3168 3168 3168 3168 3168 3168 3168 3168 3168 3167 3167 3166 3165 3165 3164 3163 3162 3161 3160 3160 3159 3158 3157 3155 3154 3153 3152 3150 3149 3148 3146 3145
3137 3137 3137 3138 3139 3139 3140 3140 3140 3140 3141 3142 3142 3142 3142 3142 3142 3142 3142 3142 3143 3143 3144 3145 3146 3147 3148 3149 3150 3151 3151 3152 3152 3153 3154 3155 3156 3157 3158 3159 3160 3160 3161 3161 3162 3163 3163 3163 3163 3164 3164 3164 3164 3165 3165 3165 3165 3165 3164 3164 3164 3164 3163 3163 3162 3161 3161 3160 3159 3158 3157 3157 3156 3155 3153 3152 3151 3150 3149 3147 3146 3144 3143 3141 3140
3135 3135 3135 3136 3136 3137 3138 3138 3138 3138 3139 3139 3140 3140 3140 3140 3140 3141 3142 3142 3142 3142 3143 3144 3145 3145 3146 3146 3147 3148 3148 3149 3150 3150 3151 3152 3154 3155 3156 3157 3157 3158 3158 3159 3159 3159 3160 3160 3160 3160 3160 3161 3161 3161 3161 3161 3161 3161 3161 3160 3160 3160 3159 3158 3158 3157 3157 3156 3155 3154 3153 3152 3151 3150 3149 3148 3146 3145 3144 3142 3141 3139 3138 3136 3135
3132 3132 3133 3133 3134 3135 3135 3136 3137 3137 3137 3137 3138 3138 3138 3138 3137 3138 3139 3140 3140 3140 3141 3142 3142 3143 3143 3144 3145 3145 3146 3147 3147 3148 3148 3149 3150 3152 3153 3154 3155 3155 3156 3156 3156 3157 3157 3157 3157 3157 3157 3157 3157 3157 3157 3157 3157 3157 3157 3157 3156 3156 3155 3154 3154 3154 3153 3152 3151 3150 3149 3148 3147 3145 3144 3143 3142 3141 3139 3138 3136 3134 3133 3131 3129
3129 3130 3130 3131 3132 3133 3133 3134 3134 3135 3135 3135 3135 3136 3136 3136 3135 3135 3136 3137 3137 3137 3138 3139 3139 3140 3140 3141 3142 3143 3143 3144 3145 3145 3146 3147 3148 3148 3149 3150 3151 3152 3152 3153 3153 3154 3153 3153 3153 3154 3154 3154 3154 3154 3154 3154 3154 3154 3153 3153 3153 3152 3151 3150 3150 3149 3149 3148 3147 3145 3144 3143 3142 3141 3139 3138 3137 3135 3134 3132 3131 3129 3127 3126 3124
3126 3127 3128 3128 3129 3130 3131 3131 3132 3133 3133 3133 3133 3133 3133 3133 3133 3132 3133 3134 3134 3134 3135 3136 3137 3137 3137 3137 3138 3139 3140 3140 3141 3142 3143 3144 3145 3145 3146 3147 3147 3148 3149 3149 3150 3150 3150 3150 3150 3151 3151 3151 3151 3151 3151 3150 3150 3150 3149 3149 3149 3148 3147 3147 3146 3145 3144 3143 3142 3141 3139 3138 3137 3135 3134 3133 3132 3130 3129 3127 3125 3124 3122 3120 3118
3123 3124 3124 3125 3126 3127 3128 3128 3129 3129 3130 3130 3130 3130 3131 3131 3131 3131 3130 3130 3131 3132 3132 3133 3134 3135 3136 3135 3135 3136 3137 3137 3139 3140 3142 3142 3143 3143 3143 3143 3144 3144 3145 3145 3146 3146 3147 3147 3148 3148 3148 3148 3148 3147 3147 3147 3146 3146 3146 3145 3144 3144 3143 3142 3141 3140 3139 3138 3137 3136 3135 3133 3132 3130 3129 3128 3126 3125 3124 3122 3120 3118 3117 3115 3112
3119 3120 3121 3122 3122 3123 3124 3125 3125 3126 3126 3127 3127 3127 3128 3128 3128 3128 3128 3128 3127 3128 3129 3130 3131 3133 3134 3134 3133 3134 3135 3136 3136 3138 3140 3141 3141 3141 3141 3141 3141 3141 3141 3142 3142 3143 3143 3144 3144 3145 3144 3144 3144 3144 3144 3143 3143 3142 3142 3141 3140 3139 3138 3138 3137 3136 3135 3133 3132 3131 3130 3128 3127 3125 3124 3123 3121 3119 3118 3116 3114 3112 3110 3108 3106
3115 3117 3117 3118 3118 3119 3119 3121 3122 3122 3123 3123 3124 3125 3125 3125 3125 3126 3126 3125 3125 3125 3126 3127 3128 3129 3131 3132 3132 3131 3132 3134 3135 3136 3138 3139 3139 3138 3138 3138 3138 3139 3139 3139 3139 3140 3140 3141 3141 3141 3141 3141 3141 3140 3140 3140 3139 3139 3138 3137 3136 3135 3134 3133 3132 3131 3130 3129 3128 3126 3125 3123 3122 3120 3119 3117 3116 3114 3112 3110 3108 3106 3104 3102 3099
3111 3112 3113 3113 3114 3115 3115 3116 3118 3118 3119 3119 3120 3121 3122 3123 3123 3123 3123 3123 3123 3123 3124 3125 3125 3127 3129 3130 3131 3130 3130 3131 3133 3134 3135 3136 3136 3135 3135 3135 3135 3135 3136 3136 3137 3137 3137 3137 3137 3137 3137 3137 3137 3137 3136 3136 3135 3134 3134 3133 3131 3130 3129 3128 3127 3126 3125 3124 3123 3122 3120 3119 3117 3115 3114 3112 3110 3108 3106 3104 3102 3099 3097 3095 3093
3107 3108 3109 3109 3110 3111 3111 3112 3113 3114 3115 3115 3116 3117 3118 3119 3120 3120 3120 3120 3120 3120 3121 3122 3123 3124 3126 3127 3129 3129 3129 3130 3130 3131 3132 3132 3132 3132 3132 3132 3132 3133 3133 3133 3133 3133 3133 3133 3134 3134 3134 3133 3133 3132 3132 3131 3130 3130 3129 3128 3127 3126 3125 3123 3122 3121 3120 3119 3118 3117 3115 3114 3112 3111 3109 3107 3104 3102 3100 3098 3096 3093 3091 3089 3087
3104 3105 3106 3107 3107 3108 3108 3109 3109 3110 3110 3111 3112 3113 3114 3115 3116 3116 3116 3116 3117 3117 3118 3120 3121 3122 3123 3124 3125 3126 3127 3127 3127 3128 3128 3128 3128 3129 3129 3129 3130 3130 3130 3130 3129 3130 3130 3130 3130 3130 3130 3129 3129 3128 3127 3126 3126 3125 3124 3123 3122 3121 3120 3119 3118 3117 3116 3114 3113 3112 3110 3108 3107 3105 3103 3101 3099 3097 3094 3092 3090 3088 3085 3083 3081
3100 3101 3103 3104 3105 3105 3105 3106 3106 3106 3106 3107 3108 3109 3109 3111 3112 3112 3113 3113 3113 3114 3115 3117 3118 3119 3120 3121 3122 3122 3123 3123 3123 3124 3125 3125 3126 3126 3126 3126 3126 3126 3126 3126 3126 3126 3126 3126 3126 3126 3125 3125 3124 3123 3123 3122 3121 3121 3120 3119 3118 3117 3116 3114 3113 3112 3110 3109 3107 3106 3104 3102 3101 3099 3097 3095 3093 3091 3089 3087 3085 3082 3080 3078 3076
3097 3098 3099 3100 3101 3102 3102 3102 3103 3103 3103 3104 3105 3106 3106 3107 3108 3108 3109 3110 3110 3111 3112 3114 3115 3116 3117 3118 3119 3119 3119 3119 3120 3121 3121 3122 3123 3123 3124 3124 3124 3123 3123 3123 3123 3123 3123 3123 3122 3122 3121 3121 3120 3119 3118 3118 3117 3116 3116 3115 3114 3112 3111 3109 3108 3106 3105 3103 3102 3100 3099 3097 3095 3093 3092 3090 3088 3086 3084 3082 3080 3078 3076 3073 3071
3094 3095 3095 3096 3097 3098 3098 3099 3099 3100 3101 3101 3101 3102 3103 3103 3104 3105 3106 3107 3108 3108 3109 3111 3113 3114 3115 3115 3116 3116 3117 3117 3118 3118 3119 3119 3120 3121 3121 3121 3121 3121 3120 3120 3120 3120 3119 3119 3119 3118 3118 3117 3116 3115 3115 3114 3113 3112 3111 3110 3109 3107 3106 3104 3103 3101 3100 3098 3097 3095 3093 3092 3090 3088 3087 3085 3083 3081 3079 3077 3075 3073 3071 3068 3066
3091 3091 3092 3093 3094 3094 3095 3096 3096 3097 3098 3098 3099 3099 3100 3100 3101 3103 3104 3104 3105 3106 3107 3108 3110 3111 3112 3112 3113 3113 3114 3115 3115 3116 3116 3117 3118 3118 3118 3119 3119 3118 3118 3117 3117 3116 3116 3115 3115 3114 3114 3113 3112 3111 3110 3109 3108 3107 3106 3105 3104 3103 3101 3100 3099 3097 3096 3094 3092 3091 3089 3088 3086 3084 3083 3081 3079 3077 3075 3073 3070 3068 3066 3064 3062